"Sample Date","Sample Time","Sample Value","Units","Flow Rate","Sample Interval","Number Channels","Micron Size 0","Counts/Channel 0","Micron Size 1","Counts/Channel 1","Micron Size 2","Counts/Channel 2","Micron Size 3","Counts/Channel 3","Micron Size 4","Counts/Channel 4","Micron Size 5","Counts/Channel 5","Micron Size 6","Counts/Channel 6","Micron Size 7","Counts/Channel 7","Micron Size 8","Counts/Channel 8","Micron Size 9","Counts/Channel 9","Micron Size 10","Counts/Channel 10","Micron Size 11","Counts/Channel 11","Micron Size 12","Counts/Channel 12","Micron Size 13","Counts/Channel 13","Micron Size 14","Counts/Channel 14","Micron Size 15","Counts/Channel 15","Micron Size 16","Counts/Channel 16","Micron Size 17","Counts/Channel 17","Micron Size 18","Counts/Channel 18","Micron Size 19","Counts/Channel 19","Micron Size 20","Counts/Channel 20","Micron Size 21","Counts/Channel 21","Micron Size 22","Counts/Channel 22","Micron Size 23","Counts/Channel 23","Micron Size 24","Counts/Channel 24","Micron Size 25","Counts/Channel 25","Micron Size 26","Counts/Channel 26","Micron Size 27","Counts/Channel 27","Micron Size 28","Counts/Channel 28","Micron Size 29","Counts/Channel 29","Micron Size 30","Counts/Channel 30","Micron Size 31","Counts/Channel 31"
"03/07/08","08:00:02",64157.000,"cc",28357.555,6.00,6,0.100,51777.000,0.200,8017.000,0.300,2278.000,0.500,1684.000,1.000,401.000,5.000,0
"03/07/08","08:00:08",51569.000,"cc",28272.475,6.00,6,0.100,41126.000,0.200,6396.000,0.300,2159.000,0.500,1481.000,1.000,407.000,5.000,0
"03/07/08","08:00:14",43346.000,"cc",28315.293,6.00,6,0.100,34525.000,0.200,5382.000,0.300,1791.000,0.500,1316.000,1.000,332.000,5.000,0
"03/07/08","08:00:20",30914.000,"cc",28318.856,6.00,6,0.100,23074.000,0.200,4161.000,0.300,1891.000,0.500,1467.000,1.000,321.000,5.000,0
"03/07/08","08:00:26",37710.000,"cc",28323.178,6.00,6,0.100,28752.000,0.200,5016.000,0.300,2038.000,0.500,1544.000,1.000,360.000,5.000,0
"03/07/08","08:00:32",34823.000,"cc",28282.953,6.00,6,0.100,25301.000,0.200,4955.000,0.300,2398.000,0.500,1775.000,1.000,394.000,5.000,0
"03/07/08","08:00:38",57805.000,"cc",28293.959,6.00,6,0.100,46006.000,0.200,7317.000,0.300,2334.000,0.500,1684.000,1.000,464.000,5.000,0
"03/07/08","08:00:44",65700.000,"cc",28326.801,6.00,6,0.100,54365.000,0.200,7787.000,0.300,1924.000,0.500,1295.000,1.000,329.000,5.000,0
"03/07/08","08:00:50",77881.000,"cc",28308.973,6.00,6,0.100,65321.000,0.200,9191.000,0.300,1853.000,0.500,1201.000,1.000,315.000,5.000,0
"03/07/08","08:00:56",85026.000,"cc",28286.590,6.00,6,0.100,71423.000,0.200,9903.000,0.300,1988.000,0.500,1378.000,1.000,334.000,5.000,0
"03/07/08","08:01:02",126196.000,"cc",28295.631,6.00,6,0.100,105983.000,0.200,15981.000,0.300,2411.000,0.500,1459.000,1.000,362.000,5.000,0
"03/07/08","08:01:08",84852.000,"cc",28374.482,6.00,6,0.100,71554.000,0.200,9820.000,0.300,1867.000,0.500,1300.000,1.000,311.000,5.000,0
"03/07/08","08:01:14",135508.000,"cc",28336.006,6.00,6,0.100,115060.000,0.200,16239.000,0.300,2393.000,0.500,1459.000,1.000,357.000,5.000,0
"03/07/08","08:01:20",86231.000,"cc",28336.666,6.00,6,0.100,72734.000,0.200,10055.000,0.300,1899.000,0.500,1236.000,1.000,307.000,5.000,0
"03/07/08","08:01:26",122168.000,"cc",28239.381,6.00,6,0.100,103795.000,0.200,14529.000,0.300,2134.000,0.500,1349.000,1.000,361.000,5.000,0
"03/07/08","08:01:32",73935.000,"cc",28361.035,6.00,6,0.100,62846.000,0.200,8432.000,0.300,1449.000,0.500,977.000,1.000,231.000,5.000,0
"03/07/08","08:01:38",114529.000,"cc",28367.301,6.00,6,0.100,97531.000,0.200,13504.000,0.300,1984.000,0.500,1195.000,1.000,315.000,5.000,0
"03/07/08","08:01:44",61082.000,"cc",28285.420,6.00,6,0.100,51066.000,0.200,7155.000,0.300,1555.000,0.500,1051.000,1.000,255.000,5.000,0
"03/07/08","08:01:50",51662.000,"cc",28289.799,6.00,6,0.100,43184.000,0.200,5996.000,0.300,1359.000,0.500,901.000,1.000,222.000,5.000,0
"03/07/08","08:01:56",45824.000,"cc",28240.316,6.00,6,0.100,36227.000,0.200,5771.000,0.300,1974.000,0.500,1495.000,1.000,357.000,5.000,0
"03/07/08","08:02:02",36415.000,"cc",28344.242,6.00,6,0.100,29162.000,0.200,4527.000,0.300,1416.000,0.500,1069.000,1.000,241.000,5.000,0
"03/07/08","08:02:08",40965.000,"cc",28354.293,6.00,6,0.100,33153.000,0.200,4857.000,0.300,1530.000,0.500,1160.000,1.000,265.000,5.000,0
"03/07/08","08:02:14",39155.000,"cc",28402.924,6.00,6,0.100,30870.000,0.200,4979.000,0.300,1689.000,0.500,1319.000,1.000,298.000,5.000,0
"03/07/08","08:02:20",41965.000,"cc",28264.375,6.00,6,0.100,32807.000,0.200,5343.000,0.300,1941.000,0.500,1512.000,1.000,362.000,5.000,0
"03/07/08","08:02:26",45377.000,"cc",28363.008,6.00,6,0.100,34953.000,0.200,5934.000,0.300,2283.000,0.500,1768.000,1.000,439.000,5.000,0
"03/07/08","08:02:32",45732.000,"cc",28318.785,6.00,6,0.100,36336.000,0.200,5746.000,0.300,1848.000,0.500,1430.000,1.000,372.000,5.000,0
"03/07/08","08:02:38",31601.000,"cc",28230.418,6.00,6,0.100,25075.000,0.200,3857.000,0.300,1389.000,0.500,1043.000,1.000,237.000,5.000,0
"03/07/08","08:02:44",50160.000,"cc",28329.861,6.00,6,0.100,40415.000,0.200,6161.000,0.300,1852.000,0.500,1389.000,1.000,343.000,5.000,0
"03/07/08","08:02:50",38712.000,"cc",28293.744,6.00,6,0.100,31531.000,0.200,4434.000,0.300,1459.000,0.500,1040.000,1.000,248.000,5.000,0
"03/07/08","08:02:56",25861.000,"cc",28355.740,6.00,6,0.100,21006.000,0.200,3027.000,0.300,978.000,0.500,674.000,1.000,176.000,5.000,0
"03/07/08","08:03:02",35640.000,"cc",28326.791,6.00,6,0.100,29838.000,0.200,3901.000,0.300,1033.000,0.500,716.000,1.000,152.000,5.000,0
"03/07/08","08:03:08",34663.000,"cc",28381.426,6.00,6,0.100,28998.000,0.200,3720.000,0.300,1010.000,0.500,751.000,1.000,184.000,5.000,0
"03/07/08","08:03:14",61433.000,"cc",28267.389,6.00,6,0.100,51292.000,0.200,7123.000,0.300,1640.000,0.500,1092.000,1.000,286.000,5.000,0
"03/07/08","08:03:20",81967.000,"cc",28311.684,6.00,6,0.100,68406.000,0.200,9536.000,0.300,2095.000,0.500,1552.000,1.000,378.000,5.000,0
"03/07/08","08:03:26",113573.000,"cc",28306.440,6.00,6,0.100,96239.000,0.200,13104.000,0.300,2312.000,0.500,1491.000,1.000,427.000,5.000,0
"03/07/08","08:03:32",93962.000,"cc",28314.047,6.00,6,0.100,79799.000,0.200,10792.000,0.300,1857.000,0.500,1196.000,1.000,318.000,5.000,0
"03/07/08","08:03:38",72453.000,"cc",28284.199,6.00,6,0.100,61161.000,0.200,8402.000,0.300,1529.000,0.500,1074.000,1.000,287.000,5.000,0
"03/07/08","08:03:44",82660.000,"cc",28358.551,6.00,6,0.100,69629.000,0.200,9521.000,0.300,1899.000,0.500,1296.000,1.000,315.000,5.000,0
"03/07/08","08:03:50",102730.000,"cc",28316.016,6.00,6,0.100,87223.000,0.200,11918.000,0.300,2002.000,0.500,1274.000,1.000,313.000,5.000,0
"03/07/08","08:03:56",87889.000,"cc",28303.367,6.00,6,0.100,74655.000,0.200,10100.000,0.300,1723.000,0.500,1132.000,1.000,279.000,5.000,0
"03/07/08","08:04:02",74862.000,"cc",28308.447,6.00,6,0.100,63420.000,0.200,8560.000,0.300,1511.000,0.500,1105.000,1.000,266.000,5.000,0
"03/07/08","08:04:08",48776.000,"cc",28382.342,6.00,6,0.100,41123.000,0.200,5568.000,0.300,1097.000,0.500,795.000,1.000,193.000,5.000,0
"03/07/08","08:04:14",37512.000,"cc",28340.424,6.00,6,0.100,31231.000,0.200,4155.000,0.300,1056.000,0.500,839.000,1.000,231.000,5.000,0
"03/07/08","08:04:20",37379.000,"cc",28195.746,6.00,6,0.100,30694.000,0.200,4264.000,0.300,1260.000,0.500,930.000,1.000,231.000,5.000,0
"03/07/08","08:04:26",31168.000,"cc",28336.703,6.00,6,0.100,24852.000,0.200,3751.000,0.300,1303.000,0.500,1038.000,1.000,224.000,5.000,0
"03/07/08","08:04:32",42584.000,"cc",28303.363,6.00,6,0.100,33319.000,0.200,5516.000,0.300,2022.000,0.500,1438.000,1.000,289.000,5.000,0
"03/07/08","08:04:38",45532.000,"cc",28332.764,6.00,6,0.100,35341.000,0.200,5973.000,0.300,2277.000,0.500,1587.000,1.000,354.000,5.000,0
"03/07/08","08:04:44",43409.000,"cc",28360.172,6.00,6,0.100,33395.000,0.200,5744.000,0.300,2227.000,0.500,1646.000,1.000,397.000,5.000,0
"03/07/08","08:04:50",40726.000,"cc",28319.686,6.00,6,0.100,32129.000,0.200,5097.000,0.300,1825.000,0.500,1351.000,1.000,324.000,5.000,0
"03/07/08","08:04:56",28712.000,"cc",28316.117,6.00,6,0.100,22703.000,0.200,3545.000,0.300,1272.000,0.500,952.000,1.000,240.000,5.000,0
"03/07/08","08:05:02",27075.000,"cc",28310.424,6.00,6,0.100,20389.000,0.200,3512.000,0.300,1580.000,0.500,1300.000,1.000,294.000,5.000,0
"03/07/08","08:05:08",30824.000,"cc",28337.352,6.00,6,0.100,23146.000,0.200,4052.000,0.300,1859.000,0.500,1397.000,1.000,370.000,5.000,0
"03/07/08","08:05:14",30988.000,"cc",28303.490,6.00,6,0.100,23230.000,0.200,4213.000,0.300,1763.000,0.500,1446.000,1.000,336.000,5.000,0
"03/07/08","08:05:20",32716.000,"cc",28264.580,6.00,6,0.100,25558.000,0.200,4151.000,0.300,1572.000,0.500,1147.000,1.000,288.000,5.000,0
"03/07/08","08:05:26",33828.000,"cc",28345.125,6.00,6,0.100,26342.000,0.200,4324.000,0.300,1599.000,0.500,1279.000,1.000,284.000,5.000,0
"03/07/08","08:05:32",37853.000,"cc",28363.822,6.00,6,0.100,30667.000,0.200,4659.000,0.300,1253.000,0.500,1042.000,1.000,232.000,5.000,0
"03/07/08","08:05:38",38094.000,"cc",28342.178,6.00,6,0.100,30408.000,0.200,4735.000,0.300,1557.000,0.500,1128.000,1.000,266.000,5.000,0
"03/07/08","08:05:44",59743.000,"cc",28228.922,6.00,6,0.100,49427.000,0.200,7283.000,0.300,1647.000,0.500,1120.000,1.000,266.000,5.000,0
"03/07/08","08:05:50",52105.000,"cc",28264.727,6.00,6,0.100,42747.000,0.200,6265.000,0.300,1672.000,0.500,1121.000,1.000,300.000,5.000,0
"03/07/08","08:05:56",33754.000,"cc",28315.926,6.00,6,0.100,27587.000,0.200,3918.000,0.300,1141.000,0.500,906.000,1.000,202.000,5.000,0
"03/07/08","08:06:02",56539.000,"cc",28311.875,6.00,6,0.100,47063.000,0.200,6711.000,0.300,1471.000,0.500,1049.000,1.000,245.000,5.000,0
"03/07/08","08:06:08",56983.000,"cc",28261.436,6.00,6,0.100,47395.000,0.200,6669.000,0.300,1587.000,0.500,1076.000,1.000,256.000,5.000,0
"03/07/08","08:06:14",107029.000,"cc",28316.289,6.00,6,0.100,91365.000,0.200,12230.000,0.300,1864.000,0.500,1238.000,1.000,332.000,5.000,0
"03/07/08","08:06:20",188926.000,"cc",28393.900,6.00,6,0.100,161943.000,0.200,22867.000,0.300,2459.000,0.500,1331.000,1.000,326.000,5.000,0
"03/07/08","08:06:26",90799.000,"cc",28312.022,6.00,6,0.100,76940.000,0.200,10391.000,0.300,1838.000,0.500,1315.000,1.000,315.000,5.000,0
"03/07/08","08:06:32",98356.000,"cc",28259.873,6.00,6,0.100,84063.000,0.200,11096.000,0.300,1712.000,0.500,1204.000,1.000,281.000,5.000,0
"03/07/08","08:06:38",102213.000,"cc",28387.305,6.00,6,0.100,87162.000,0.200,11507.000,0.300,1931.000,0.500,1325.000,1.000,288.000,5.000,0
"03/07/08","08:06:44",144023.000,"cc",28336.156,6.00,6,0.100,121560.000,0.200,17268.000,0.300,2883.000,0.500,1872.000,1.000,440.000,5.000,0
"03/07/08","08:06:50",165890.000,"cc",28313.426,6.00,6,0.100,141422.000,0.200,19738.000,0.300,2661.000,0.500,1650.000,1.000,419.000,5.000,0
"03/07/08","08:06:56",149178.000,"cc",28289.811,6.00,6,0.100,128067.000,0.200,17270.000,0.300,2260.000,0.500,1281.000,1.000,300.000,5.000,0
"03/07/08","08:07:02",125316.000,"cc",28266.297,6.00,6,0.100,108153.000,0.200,14210.000,0.300,1730.000,0.500,970.000,1.000,253.000,5.000,0
"03/07/08","08:07:08",143487.000,"cc",28286.563,6.00,6,0.100,124048.000,0.200,16475.000,0.300,1742.000,0.500,1020.000,1.000,202.000,5.000,0
"03/07/08","08:07:14",139009.000,"cc",28387.738,6.00,6,0.100,120077.000,0.200,15857.000,0.300,1803.000,0.500,1012.000,1.000,260.000,5.000,0
"03/07/08","08:07:20",104892.000,"cc",28349.473,6.00,6,0.100,90375.000,0.200,11727.000,0.300,1570.000,0.500,977.000,1.000,243.000,5.000,0
"03/07/08","08:07:26",136234.000,"cc",28322.869,6.00,6,0.100,117185.000,0.200,15649.000,0.300,1948.000,0.500,1161.000,1.000,291.000,5.000,0
"03/07/08","08:07:32",118944.000,"cc",28223.492,6.00,6,0.100,102506.000,0.200,13390.000,0.300,1725.000,0.500,1045.000,1.000,278.000,5.000,0
"03/07/08","08:07:38",83419.000,"cc",28282.387,6.00,6,0.100,71685.000,0.200,9289.000,0.300,1328.000,0.500,881.000,1.000,236.000,5.000,0
"03/07/08","08:07:44",74781.000,"cc",28392.008,6.00,6,0.100,64121.000,0.200,8201.000,0.300,1258.000,0.500,994.000,1.000,207.000,5.000,0
"03/07/08","08:07:50",65136.000,"cc",28300.434,6.00,6,0.100,55787.000,0.200,7114.000,0.300,1200.000,0.500,816.000,1.000,219.000,5.000,0
"03/07/08","08:07:56",93286.000,"cc",28312.572,6.00,6,0.100,80116.000,0.200,10466.000,0.300,1514.000,0.500,949.000,1.000,241.000,5.000,0
"03/07/08","08:08:02",88739.000,"cc",28328.516,6.00,6,0.100,75560.000,0.200,10245.000,0.300,1587.000,0.500,1108.000,1.000,239.000,5.000,0
"03/07/08","08:08:08",47611.000,"cc",28398.047,6.00,6,0.100,39801.000,0.200,5377.000,0.300,1239.000,0.500,966.000,1.000,228.000,5.000,0
"03/07/08","08:08:14",70259.000,"cc",28265.078,6.00,6,0.100,59666.000,0.200,7884.000,0.300,1456.000,0.500,1002.000,1.000,251.000,5.000,0
"03/07/08","08:08:20",39890.000,"cc",28297.789,6.00,6,0.100,32373.000,0.200,4694.000,0.300,1433.000,0.500,1100.000,1.000,290.000,5.000,0
"03/07/08","08:08:26",42644.000,"cc",28319.283,6.00,6,0.100,34067.000,0.200,5195.000,0.300,1693.000,0.500,1339.000,1.000,350.000,5.000,0
"03/07/08","08:08:32",29437.000,"cc",28333.139,6.00,6,0.100,23766.000,0.200,3410.000,0.300,1184.000,0.500,869.000,1.000,208.000,5.000,0
"03/07/08","08:08:38",36730.000,"cc",28309.184,6.00,6,0.100,30592.000,0.200,4189.000,0.300,1034.000,0.500,734.000,1.000,181.000,5.000,0
"03/07/08","08:08:44",32729.000,"cc",28369.471,6.00,6,0.100,27309.000,0.200,3682.000,0.300,915.000,0.500,672.000,1.000,151.000,5.000,0
"03/07/08","08:08:50",21762.000,"cc",28266.199,6.00,6,0.100,17616.000,0.200,2474.000,0.300,831.000,0.500,694.000,1.000,147.000,5.000,0
"03/07/08","08:08:56",28911.000,"cc",28283.572,6.00,6,0.100,23112.000,0.200,3486.000,0.300,1149.000,0.500,929.000,1.000,235.000,5.000,0
"03/07/08","08:09:02",28058.000,"cc",28321.231,6.00,6,0.100,21362.000,0.200,3620.000,0.300,1597.000,0.500,1201.000,1.000,278.000,5.000,0
"03/07/08","08:09:08",28499.000,"cc",28320.965,6.00,6,0.100,22702.000,0.200,3352.000,0.300,1234.000,0.500,966.000,1.000,245.000,5.000,0
"03/07/08","08:09:14",18689.000,"cc",28316.033,6.00,6,0.100,14480.000,0.200,2215.000,0.300,989.000,0.500,795.000,1.000,210.000,5.000,0
"03/07/08","08:09:20",19969.000,"cc",28357.332,6.00,6,0.100,15611.000,0.200,2370.000,0.300,989.000,0.500,783.000,1.000,216.000,5.000,0
"03/07/08","08:09:26",29189.000,"cc",28336.012,6.00,6,0.100,23174.000,0.200,3512.000,0.300,1284.000,0.500,996.000,1.000,223.000,5.000,0
"03/07/08","08:09:32",79120.000,"cc",28335.971,6.00,6,0.100,66642.000,0.200,9205.000,0.300,1716.000,0.500,1240.000,1.000,317.000,5.000,0
"03/07/08","08:09:38",40878.000,"cc",28367.045,6.00,6,0.100,34242.000,0.200,4640.000,0.300,1081.000,0.500,726.000,1.000,189.000,5.000,0
"03/07/08","08:09:44",34781.000,"cc",28208.072,6.00,6,0.100,28441.000,0.200,4103.000,0.300,1191.000,0.500,841.000,1.000,205.000,5.000,0
"03/07/08","08:09:50",35229.000,"cc",28281.225,6.00,6,0.100,27959.000,0.200,4404.000,0.300,1463.000,0.500,1145.000,1.000,258.000,5.000,0
"03/07/08","08:09:56",42834.000,"cc",28328.549,6.00,6,0.100,34700.000,0.200,5213.000,0.300,1533.000,0.500,1147.000,1.000,241.000,5.000,0
"03/07/08","08:10:02",96155.000,"cc",28291.621,6.00,6,0.100,81972.000,0.200,10951.000,0.300,1736.000,0.500,1201.000,1.000,295.000,5.000,0
"03/07/08","08:10:08",77065.000,"cc",28357.264,6.00,6,0.100,65554.000,0.200,8553.000,0.300,1598.000,0.500,1091.000,1.000,269.000,5.000,0
"03/07/08","08:10:14",72470.000,"cc",28343.428,6.00,6,0.100,61378.000,0.200,8161.000,0.300,1588.000,0.500,1064.000,1.000,279.000,5.000,0
"03/07/08","08:10:20",71962.000,"cc",28309.119,6.00,6,0.100,59882.000,0.200,8324.000,0.300,1970.000,0.500,1412.000,1.000,374.000,5.000,0
"03/07/08","08:10:26",47131.000,"cc",28293.240,6.00,6,0.100,38894.000,0.200,5447.000,0.300,1407.000,0.500,1093.000,1.000,290.000,5.000,0
"03/07/08","08:10:32",54190.000,"cc",28345.818,6.00,6,0.100,45339.000,0.200,6033.000,0.300,1432.000,0.500,1082.000,1.000,304.000,5.000,0
"03/07/08","08:10:38",55278.000,"cc",28364.537,6.00,6,0.100,45724.000,0.200,6447.000,0.300,1597.000,0.500,1194.000,1.000,316.000,5.000,0
"03/07/08","08:10:44",39207.000,"cc",28332.057,6.00,6,0.100,31630.000,0.200,4689.000,0.300,1473.000,0.500,1132.000,1.000,283.000,5.000,0
"03/07/08","08:10:50",36301.000,"cc",28321.453,6.00,6,0.100,28227.000,0.200,4701.000,0.300,1734.000,0.500,1314.000,1.000,325.000,5.000,0
"03/07/08","08:10:56",46546.000,"cc",28272.641,6.00,6,0.100,37556.000,0.200,5623.000,0.300,1693.000,0.500,1329.000,1.000,345.000,5.000,0
"03/07/08","08:11:02",38510.000,"cc",28340.291,6.00,6,0.100,31285.000,0.200,4660.000,0.300,1322.000,0.500,982.000,1.000,261.000,5.000,0
"03/07/08","08:11:08",37135.000,"cc",28272.557,6.00,6,0.100,29913.000,0.200,4364.000,0.300,1430.000,0.500,1139.000,1.000,289.000,5.000,0
"03/07/08","08:11:14",37333.000,"cc",28328.756,6.00,6,0.100,29787.000,0.200,4634.000,0.300,1493.000,0.500,1129.000,1.000,290.000,5.000,0
"03/07/08","08:11:20",52518.000,"cc",28322.924,6.00,6,0.100,41808.000,0.200,6577.000,0.300,2171.000,0.500,1577.000,1.000,385.000,5.000,0
"03/07/08","08:11:26",32384.000,"cc",28306.336,6.00,6,0.100,24921.000,0.200,4164.000,0.300,1663.000,0.500,1297.000,1.000,339.000,5.000,0
"03/07/08","08:11:32",44148.000,"cc",28291.602,6.00,6,0.100,35131.000,0.200,5510.000,0.300,1815.000,0.500,1329.000,1.000,363.000,5.000,0
"03/07/08","08:11:38",32755.000,"cc",28295.525,6.00,6,0.100,25195.000,0.200,4179.000,0.300,1668.000,0.500,1341.000,1.000,372.000,5.000,0
"03/07/08","08:11:44",26363.000,"cc",28322.506,6.00,6,0.100,19240.000,0.200,3548.000,0.300,1803.000,0.500,1416.000,1.000,356.000,5.000,0
"03/07/08","08:11:50",40900.000,"cc",28339.555,6.00,6,0.100,32423.000,0.200,5084.000,0.300,1691.000,0.500,1371.000,1.000,331.000,5.000,0
"03/07/08","08:11:56",32882.000,"cc",28295.389,6.00,6,0.100,25526.000,0.200,4210.000,0.300,1549.000,0.500,1295.000,1.000,302.000,5.000,0
"03/07/08","08:12:02",48829.000,"cc",28339.111,6.00,6,0.100,39329.000,0.200,5924.000,0.300,1849.000,0.500,1378.000,1.000,349.000,5.000,0
"03/07/08","08:12:08",49868.000,"cc",28286.344,6.00,6,0.100,39987.000,0.200,6220.000,0.300,1926.000,0.500,1384.000,1.000,351.000,5.000,0
"03/07/08","08:12:14",39625.000,"cc",28279.059,6.00,6,0.100,31769.000,0.200,4869.000,0.300,1538.000,0.500,1142.000,1.000,307.000,5.000,0
"03/07/08","08:12:20",31176.000,"cc",28311.963,6.00,6,0.100,25151.000,0.200,3647.000,0.300,1272.000,0.500,895.000,1.000,211.000,5.000,0
"03/07/08","08:12:26",66293.000,"cc",28310.133,6.00,6,0.100,53932.000,0.200,8253.000,0.300,2168.000,0.500,1574.000,1.000,366.000,5.000,0
"03/07/08","08:12:32",60819.000,"cc",28381.547,6.00,6,0.100,49323.000,0.200,7571.000,0.300,2153.000,0.500,1423.000,1.000,349.000,5.000,0
"03/07/08","08:12:38",40676.000,"cc",28300.072,6.00,6,0.100,32981.000,0.200,4861.000,0.300,1497.000,0.500,1077.000,1.000,260.000,5.000,0
"03/07/08","08:12:44",65111.000,"cc",28340.330,6.00,6,0.100,52914.000,0.200,8028.000,0.300,2176.000,0.500,1610.000,1.000,383.000,5.000,0
"03/07/08","08:12:50",70941.000,"cc",28385.322,6.00,6,0.100,57733.000,0.200,8834.000,0.300,2347.000,0.500,1627.000,1.000,400.000,5.000,0
"03/07/08","08:12:56",99014.000,"cc",28239.420,6.00,6,0.100,83561.000,0.200,11435.000,0.300,2217.000,0.500,1428.000,1.000,373.000,5.000,0
"03/07/08","08:13:02",155753.000,"cc",28312.537,6.00,6,0.100,133148.000,0.200,18116.000,0.300,2533.000,0.500,1576.000,1.000,380.000,5.000,0
"03/07/08","08:13:08",122923.000,"cc",28314.086,6.00,6,0.100,105216.000,0.200,14038.000,0.300,2022.000,0.500,1317.000,1.000,330.000,5.000,0
"03/07/08","08:13:14",53392.000,"cc",28318.637,6.00,6,0.100,45036.000,0.200,5848.000,0.300,1345.000,0.500,898.000,1.000,265.000,5.000,0
"03/07/08","08:13:20",134103.000,"cc",28330.805,6.00,6,0.100,113575.000,0.200,15748.000,0.300,2607.000,0.500,1725.000,1.000,448.000,5.000,0
"03/07/08","08:13:26",141042.000,"cc",28327.840,6.00,6,0.100,118766.000,0.200,16837.000,0.300,2995.000,0.500,1893.000,1.000,551.000,5.000,0
"03/07/08","08:13:32",158028.000,"cc",28331.475,6.00,6,0.100,133212.000,0.200,19087.000,0.300,3211.000,0.500,2000.000,1.000,518.000,5.000,0
"03/07/08","08:13:38",221816.000,"cc",28296.832,6.00,6,0.100,187308.000,0.200,28814.000,0.300,3359.000,0.500,1848.000,1.000,487.000,5.000,0
"03/07/08","08:13:44",122706.000,"cc",28291.160,6.00,6,0.100,105200.000,0.200,14245.000,0.300,1823.000,0.500,1148.000,1.000,290.000,5.000,0
"03/07/08","08:13:50",188494.000,"cc",28273.311,6.00,6,0.100,161781.000,0.200,22511.000,0.300,2481.000,0.500,1399.000,1.000,322.000,5.000,0
"03/07/08","08:13:56",138973.000,"cc",28345.336,6.00,6,0.100,118424.000,0.200,16541.000,0.300,2302.000,0.500,1365.000,1.000,341.000,5.000,0
"03/07/08","08:14:02",125935.000,"cc",28318.150,6.00,6,0.100,106743.000,0.200,14695.000,0.300,2503.000,0.500,1589.000,1.000,405.000,5.000,0
"03/07/08","08:14:08",113001.000,"cc",28302.100,6.00,6,0.100,96440.000,0.200,13121.000,0.300,1930.000,0.500,1194.000,1.000,316.000,5.000,0
"03/07/08","08:14:14",73532.000,"cc",28430.049,6.00,6,0.100,62759.000,0.200,8028.000,0.300,1478.000,0.500,1010.000,1.000,257.000,5.000,0
"03/07/08","08:14:20",72200.000,"cc",28272.279,6.00,6,0.100,61079.000,0.200,8150.000,0.300,1586.000,0.500,1074.000,1.000,311.000,5.000,0
"03/07/08","08:14:26",60722.000,"cc",28359.473,6.00,6,0.100,50881.000,0.200,6816.000,0.300,1574.000,0.500,1172.000,1.000,279.000,5.000,0
"03/07/08","08:14:32",88142.000,"cc",28318.520,6.00,6,0.100,74762.000,0.200,10070.000,0.300,1827.000,0.500,1171.000,1.000,312.000,5.000,0
"03/07/08","08:14:38",62069.000,"cc",28278.912,6.00,6,0.100,51951.000,0.200,7161.000,0.300,1541.000,0.500,1091.000,1.000,325.000,5.000,0
"03/07/08","08:14:44",110389.000,"cc",28312.436,6.00,6,0.100,94632.000,0.200,12741.000,0.300,1771.000,0.500,997.000,1.000,248.000,5.000,0
"03/07/08","08:14:50",144170.000,"cc",28305.652,6.00,6,0.100,124248.000,0.200,16869.000,0.300,1801.000,0.500,991.000,1.000,261.000,5.000,0
"03/07/08","08:14:56",61264.000,"cc",28308.568,6.00,6,0.100,52590.000,0.200,6677.000,0.300,1084.000,0.500,737.000,1.000,176.000,5.000,0
"03/07/08","08:15:02",80346.000,"cc",28322.959,6.00,6,0.100,68665.000,0.200,9046.000,0.300,1434.000,0.500,950.000,1.000,251.000,5.000,0
"03/07/08","08:15:08",70027.000,"cc",28363.057,6.00,6,0.100,58824.000,0.200,8053.000,0.300,1639.000,0.500,1185.000,1.000,326.000,5.000,0
"03/07/08","08:15:14",87866.000,"cc",28284.254,6.00,6,0.100,74072.000,0.200,10221.000,0.300,1904.000,0.500,1323.000,1.000,346.000,5.000,0
"03/07/08","08:15:20",98973.000,"cc",28345.342,6.00,6,0.100,83838.000,0.200,11495.000,0.300,1982.000,0.500,1322.000,1.000,336.000,5.000,0
"03/07/08","08:15:26",90083.000,"cc",28320.244,6.00,6,0.100,75758.000,0.200,10533.000,0.300,2049.000,0.500,1374.000,1.000,369.000,5.000,0
"03/07/08","08:15:32",54242.000,"cc",28300.346,6.00,6,0.100,44773.000,0.200,6384.000,0.300,1665.000,0.500,1140.000,1.000,280.000,5.000,0
"03/07/08","08:15:38",48796.000,"cc",28340.566,6.00,6,0.100,40540.000,0.200,5599.000,0.300,1400.000,0.500,994.000,1.000,263.000,5.000,0
"03/07/08","08:15:44",54907.000,"cc",28278.453,6.00,6,0.100,45269.000,0.200,6434.000,0.300,1658.000,0.500,1229.000,1.000,317.000,5.000,0
"03/07/08","08:15:50",52038.000,"cc",28334.627,6.00,6,0.100,42887.000,0.200,6141.000,0.300,1557.000,0.500,1161.000,1.000,292.000,5.000,0
"03/07/08","08:15:56",43862.000,"cc",28310.887,6.00,6,0.100,36159.000,0.200,5000.000,0.300,1396.000,0.500,1031.000,1.000,276.000,5.000,0
"03/07/08","08:16:02",62890.000,"cc",28349.215,6.00,6,0.100,52878.000,0.200,7304.000,0.300,1403.000,0.500,1022.000,1.000,283.000,5.000,0
"03/07/08","08:16:08",69243.000,"cc",28286.055,6.00,6,0.100,58843.000,0.200,7916.000,0.300,1365.000,0.500,870.000,1.000,249.000,5.000,0
"03/07/08","08:16:14",93257.000,"cc",28322.930,6.00,6,0.100,79697.000,0.200,10641.000,0.300,1640.000,0.500,1010.000,1.000,269.000,5.000,0
"03/07/08","08:16:20",102920.000,"cc",28266.158,6.00,6,0.100,87341.000,0.200,12116.000,0.300,1898.000,0.500,1252.000,1.000,313.000,5.000,0